RH
37 66 89 94 84 80 79 83 88 97 100 100 100 100 97 98 100 100 95 49 14 6 8 10 11 17 19 17 12 8 7 7
64 88 100 87 81 82 95 100 100 100 100 99 91 100 100 100 94 21 6 8 14 14 12 13 16 22 27 29 31 27 26 24
61 84 94 90 97 91 74 85 94 96 100 96 87 88 62 7 10 13 14 15 15 16 18 21 26 28 27 28 29 34 34 33
8 40 60 85 84 68 44 59 44 11 6 8 9 10 12 12 12 12 12 12 12 12 12 11 12 14 17 21 29 30 33 31
9 8 8 7 5 5 4 5 8 10 10 10 10 10 9 9 9 10 11 11 11 10 9 9 9 10 13 16 24 33 32 41
6 5 4 3 4 6 8 9 9 9 9 9 8 8 7 7 7 7 9 11 13 14 13 12 9 8 8 10 16 27 30 31
5 3 3 6 8 9 12 13 14 14 13 11 10 14 34 62 84 87 86 92 97 79 69 40 18 8 7 8 9 13 22 26
4 4 7 11 30 40 37 39 44 29 16 34 87 98 98 98 99 98 98 99 100 100 100 99 94 83 59 27 11 9 12 20
6 9 22 67 66 69 85 69 46 56 96 100 99 97 98 98 93 72 47 37 50 64 80 96 100 99 92 88 87 51 20 12
25 62 81 80 91 98 86 82 93 100 98 99 99 87 45 18 16 9 7 7 7 8 9 9 9 16 85 97 88 97 83 38
51 59 88 89 94 100 98 98 98 98 99 81 57 36 13 8 8 9 9 10 11 16 21 24 24 21 16 21 86 100 99 97
77 76 59 88 100 99 94 99 100 95 89 90 96 21 10 8 10 11 12 14 23 34 37 34 34 31 27 26 27 61 100 99
60 54 89 100 100 100 96 98 97 97 100 100 70 10 10 11 13 17 24 34 34 33 40 44 53 49 39 33 35 37 44 100
88 93 100 100 100 96 92 95 95 100 99 87 12 11 13 15 20 27 33 37 31 27 24 35 66 84 72 50 37 37 37 39
100 100 98 94 100 97 86 88 89 91 89 21 10 13 15 20 23 24 22 20 38 57 42 45 61 76 83 74 55 55 47 30
99 91 94 97 100 90 91 90 71 13 7 8 12 14 17 17 14 13 15 33 42 44 50 80 81 67 72 72 72 65 69 50
84 86 92 98 96 89 87 43 5 4 7 12 13 15 16 18 21 25 26 27 34 57 75 94 99 100 100 94 84 88 81 71
83 87 96 100 93 96 45 5 4 6 8 12 14 15 16 23 44 67 91 92 79 69 64 70 100 100 99 96 94 91 82 80
73 82 94 100 98 98 24 5 4 6 8 12 17 30 35 32 43 46 36 34 46 58 82 100 100 100 92 89 91 79 68 70
Wind_Speed
30 30 27 30 34 29 27 26 27 32 34 38 39 38 37 39 41 43 49 53 55 50 39 36 35 35 36 38 37 38 40 40
29 26 23 25 26 26 27 27 32 35 38 37 34 35 38 42 48 50 50 46 41 42 42 42 39 38 39 38 37 31 29 30
22 25 28 33 29 29 29 32 35 36 35 36 40 44 49 46 43 44 44 46 46 47 45 43 43 41 40 40 36 35 34 32
21 18 23 27 32 35 31 34 38 40 40 40 39 39 39 42 44 47 48 50 51 52 52 49 47 46 43 43 41 36 35 33
18 19 23 27 32 35 34 33 32 33 35 38 41 44 46 47 49 50 52 53 54 54 54 53 49 46 44 44 44 43 40 38
24 27 31 34 32 27 26 28 31 36 39 43 46 48 50 52 52 54 55 55 55 55 56 56 56 55 51 48 47 49 48 45
29 33 32 26 25 25 28 32 37 40 44 47 51 53 53 50 48 49 50 50 52 55 56 59 59 58 57 55 51 52 51 50
32 29 26 25 27 31 35 38 41 45 50 51 48 45 43 42 41 41 42 43 46 49 51 54 57 60 59 58 55 54 55 53
23 24 24 27 30 34 36 39 45 48 48 43 38 38 39 41 44 46 49 50 51 52 52 51 51 52 54 55 56 58 59 58
21 22 27 30 32 35 38 41 42 38 36 38 36 40 43 46 48 48 50 50 49 49 48 48 48 49 51 50 53 52 57 61
23 28 32 35 37 37 34 36 35 33 31 35 40 44 47 47 47 47 45 42 41 38 36 35 35 37 39 42 48 44 49 54
28 33 34 37 39 34 35 36 29 31 36 42 51 48 47 47 46 43 41 40 40 40 40 38 37 35 34 34 36 40 44 47
33 33 34 41 36 34 37 33 32 38 45 50 56 52 48 46 44 43 43 41 40 40 38 37 38 37 34 30 32 33 35 45
29 31 39 40 37 34 37 39 38 42 44 55 55 48 47 46 46 48 45 42 39 37 35 32 32 32 33 35 36 34 32 36
31 37 43 45 43 36 37 41 43 48 50 57 53 52 49 49 48 44 42 37 29 30 29 30 29 29 28 31 31 31 32 32
37 41 43 47 42 36 36 44 45 50 53 54 51 48 48 46 44 42 38 33 33 33 30 29 29 30 30 30 31 34 33 34
38 40 42 48 38 39 41 44 49 51 54 53 50 49 45 45 44 42 40 39 39 38 35 33 31 32 33 31 33 36 38 39
38 41 45 51 37 39 44 48 49 53 58 59 55 51 50 49 49 46 42 37 34 31 29 26 26 27 28 31 33 36 38 41
37 40 48 51 38 39 46 49 51 56 62 65 60 56 54 47 47 47 44 36 29 22 15 7 8 11 15 21 26 32 40 44
Wind_Direction
313 302 302 298 291 300 302 301 297 305 300 300 297 292 293 293 292 287 286 289 290 289 287 288 286 284 288 288 275 265 262 260
316 309 308 304 303 296 300 294 302 300 293 294 293 293 292 286 288 289 289 289 290 292 289 286 280 284 289 288 286 277 267 262
313 318 298 308 308 294 291 304 299 296 292 291 290 284 288 289 289 289 290 291 290 288 285 283 281 281 282 284 282 275 272 265
312 290 285 277 283 288 297 294 293 296 296 294 290 288 289 290 290 290 289 288 288 287 286 284 282 280 278 278 274 268 266 260
302 299 299 300 306 306 303 302 301 300 301 300 299 298 297 296 295 292 291 290 289 288 287 285 280 274 271 270 268 265 256 258
310 313 313 312 311 307 303 305 308 308 307 305 303 301 298 295 292 290 288 287 286 283 281 279 278 275 269 264 261 259 254 250
315 319 324 321 320 321 320 319 317 314 310 305 302 303 302 300 296 291 286 283 280 277 274 270 269 269 269 265 261 256 254 250
323 327 327 327 332 334 329 322 315 308 306 311 311 308 307 305 303 299 295 290 285 281 276 273 271 268 263 258 254 252 252 251
329 331 336 343 339 332 324 314 310 313 315 315 314 312 312 311 307 303 299 294 288 283 279 275 270 266 263 259 253 247 245 245
342 350 351 345 338 331 320 318 316 320 320 320 321 319 312 310 306 303 300 297 293 290 285 278 272 266 260 258 254 246 243 241
3 357 351 348 345 342 325 325 328 325 329 328 326 320 315 312 311 310 306 300 296 292 289 287 281 271 261 255 249 246 238 236
4 357 350 347 350 340 335 336 333 333 331 328 328 324 318 316 313 309 305 301 297 291 285 281 277 272 264 258 248 243 235 229
359 351 347 353 359 345 338 337 331 329 326 327 331 326 321 318 316 313 309 306 301 292 286 285 275 266 258 253 244 239 234 227
354 352 357 4 3 348 346 340 332 327 326 329 330 329 328 323 317 314 312 307 301 293 286 281 273 266 256 246 240 239 235 226
357 8 8 5 4 352 352 351 348 342 333 335 340 336 328 324 321 317 313 307 302 302 290 283 273 265 255 243 231 224 222 218
8 9 7 1 8 350 354 356 351 347 344 343 341 334 330 328 327 323 316 303 297 293 290 284 271 259 252 243 233 222 216 213
12 10 4 5 8 4 7 1 358 358 355 355 356 348 339 337 333 328 320 311 302 296 288 283 272 257 248 244 234 226 218 210
16 11 5 11 10 11 13 8 7 3 1 5 4 354 349 345 342 338 331 323 317 308 295 279 261 250 242 235 226 218 212 207
15 12 8 14 15 18 16 13 9 6 5 10 10 7 9 20 26 26 29 27 17 8 2 326 263 231 218 212 212 212 208 203